| time (UTC) | temp C | wind direction | speed KPH | gust KPH | rain 1hr cm | rain 24hr cm | rain mn cm | humidity % | barometer mb |
| 20260507103032 | 12 | 30 | 4.8 | 14.5 | 0.00 | 0.97 | 0.00 | 92 | 1018.1 |
| 20260507101536 | 12 | 39 | 8.0 | 12.9 | 0.00 | 0.97 | 0.00 | 91 | 1017.4 |
| 20260507100046 | 12 | 36 | 8.0 | 12.9 | 0.00 | 0.97 | 0.00 | 91 | 1017.6 |
| 20260507094536 | 12 | 63 | 9.7 | 16.1 | 0.00 | 0.97 | 0.00 | 91 | 1017.4 |
| 20260507093032 | 12 | 15 | 6.4 | 11.3 | 0.00 | 0.97 | 0.00 | 92 | 1017.4 |
| 20260507091540 | 12 | 338 | 8.0 | 17.7 | 0.00 | 0.97 | 0.00 | 92 | 1016.8 |
| 20260507090040 | 12 | 28 | 6.4 | 12.9 | 0.00 | 0.97 | 0.00 | 93 | 1017.0 |
| 20260507084541 | 12 | 49 | 6.4 | 12.9 | 0.00 | 0.97 | 0.00 | 92 | 1017.2 |
| 20260507083035 | 12 | 36 | 1.6 | 8.0 | 0.00 | 0.97 | 0.00 | 93 | 1017.2 |
| 20260507081532 | 12 | 51 | 3.2 | 4.8 | 0.00 | 0.97 | 0.00 | 94 | 1017.0 |
| 20260507080032 | 12 | 70 | 1.6 | 4.8 | 0.00 | 0.97 | 0.00 | 94 | 1017.3 |
| 20260507074536 | 12 | 0 | 0.0 | 0.0 | 0.00 | 0.97 | 0.00 | 95 | 1017.2 |
| 20260507073035 | 12 | 0 | 0.0 | 0.0 | 0.00 | 0.97 | 0.00 | 95 | 1017.0 |
| 20260507071537 | 12 | 189 | 1.6 | 4.8 | 0.00 | 0.97 | 0.00 | 95 | 1017.0 |
| 20260507070041 | 12 | 0 | 0.0 | 3.2 | 0.00 | 0.97 | 0.00 | 94 | 1016.2 |
| 20260507064558 | 12 | 62 | 1.6 | 4.8 | 0.00 | 0.97 | 0.00 | 95 | 1015.7 |
| 20260507063041 | 12 | 34 | 1.6 | 6.4 | 0.00 | 0.97 | 0.00 | 95 | 1015.6 |
| 20260507061537 | 12 | 0 | 0.0 | 0.0 | 0.00 | 0.97 | 0.00 | 95 | 1015.5 |
| 20260507060039 | 12 | 0 | 0.0 | 0.0 | 0.00 | 0.97 | 0.00 | 94 | 1015.6 |
| 20260507054535 | 12 | 0 | 0.0 | 0.0 | 0.00 | 0.97 | 0.00 | 94 | 1015.6 |
| 20260507053039 | 13 | 0 | 0.0 | 0.0 | 0.00 | 0.97 | 0.00 | 94 | 1015.6 |
| 20260507051540 | 13 | 0 | 0.0 | 0.0 | 0.00 | 0.97 | 0.00 | 94 | 1015.6 |
| 20260507050041 | 13 | 0 | 0.0 | 0.0 | 0.00 | 0.97 | 0.00 | 93 | 1015.6 |
| 20260507044537 | 13 | 0 | 0.0 | 0.0 | 0.00 | 0.97 | 0.97 | 93 | 1015.7 |
| 20260507043035 | 13 | 99 | 0.0 | 1.6 | 0.00 | 0.97 | 0.97 | 93 | 1015.7 |
| 20260507041535 | 13 | 99 | 0.0 | 1.6 | 0.00 | 0.97 | 0.97 | 93 | 1015.7 |
| 20260507040035 | 13 | 100 | 1.6 | 4.8 | 0.00 | 0.97 | 0.97 | 92 | 1015.5 |
| 20260507034535 | 13 | 100 | 1.6 | 3.2 | 0.00 | 0.97 | 0.97 | 92 | 1015.4 |
| 20260507033037 | 13 | 83 | 1.6 | 4.8 | 0.00 | 0.97 | 0.97 | 92 | 1015.1 |
| 20260507031536 | 13 | 94 | 3.2 | 4.8 | 0.00 | 0.97 | 0.97 | 92 | 1015.0 |
| 20260507030037 | 13 | 94 | 1.6 | 3.2 | 0.00 | 0.97 | 0.97 | 91 | 1015.1 |
| 20260507024537 | 13 | 64 | 0.0 | 3.2 | 0.00 | 0.97 | 0.97 | 91 | 1014.9 |
| 20260507023039 | 14 | 98 | 0.0 | 1.6 | 0.00 | 0.97 | 0.97 | 90 | 1014.7 |
| 20260507021540 | 14 | 0 | 0.0 | 6.4 | 0.00 | 0.97 | 0.97 | 89 | 1014.1 |
| 20260507020048 | 14 | 92 | 4.8 | 8.0 | 0.00 | 0.97 | 0.97 | 88 | 1013.8 |
| 20260507014544 | 15 | 83 | 4.8 | 9.7 | 0.00 | 0.97 | 0.97 | 87 | 1013.9 |
| 20260507013036 | 15 | 65 | 4.8 | 11.3 | 0.00 | 0.97 | 0.97 | 86 | 1013.7 |
| 20260507011538 | 16 | 55 | 3.2 | 9.7 | 0.00 | 0.97 | 0.97 | 85 | 1014.1 |
| 20260507010055 | 16 | 24 | 1.6 | 8.0 | 0.00 | 0.97 | 0.97 | 85 | 1013.9 |
| 20260507004536 | 16 | 323 | 3.2 | 9.7 | 0.00 | 0.97 | 0.97 | 84 | 1013.8 |
| 20260507003040 | 16 | 344 | 3.2 | 11.3 | 0.00 | 0.97 | 0.97 | 83 | 1013.4 |
| 20260507001536 | 16 | 8 | 4.8 | 11.3 | 0.00 | 0.97 | 0.97 | 82 | 1013.2 |
| 20260507000037 | 17 | 53 | 1.6 | 11.3 | 0.00 | 0.97 | 0.97 | 82 | 1013.1 |
| 20260506234535 | 17 | 27 | 4.8 | 11.3 | 0.00 | 0.97 | 0.97 | 79 | 1012.6 |
| 20260506233035 | 18 | 77 | 4.8 | 12.9 | 0.00 | 0.97 | 0.97 | 77 | 1012.5 |
| 20260506231546 | 18 | 39 | 3.2 | 12.9 | 0.00 | 0.97 | 0.97 | 77 | 1012.7 |
| 20260506230055 | 18 | 45 | 4.8 | 9.7 | 0.00 | 0.97 | 0.97 | 78 | 1012.6 |
| 20260506224539 | 18 | 20 | 4.8 | 11.3 | 0.00 | 0.97 | 0.97 | 76 | 1012.5 |
| 20260506223037 | 18 | 6 | 4.8 | 11.3 | 0.00 | 0.97 | 0.97 | 76 | 1012.6 |
| 20260506221538 | 18 | 27 | 4.8 | 12.9 | 0.00 | 0.97 | 0.97 | 76 | 1012.4 |
| 20260506220045 | 19 | 23 | 3.2 | 11.3 | 0.00 | 0.97 | 0.97 | 73 | 1012.7 |
| 20260506214539 | 18 | 26 | 4.8 | 12.9 | 0.00 | 0.97 | 0.97 | 78 | 1012.7 |
| 20260506213039 | 17 | 11 | 3.2 | 11.3 | 0.00 | 0.97 | 0.97 | 80 | 1013.1 |
| 20260506211535 | 16 | 28 | 1.6 | 14.5 | 0.00 | 0.97 | 0.97 | 85 | 1013.1 |
| 20260506210034 | 16 | 18 | 8.0 | 14.5 | 0.00 | 0.97 | 0.97 | 86 | 1012.9 |
| 20260506204538 | 15 | 53 | 6.4 | 11.3 | 0.00 | 0.97 | 0.97 | 92 | 1013.3 |
| 20260506203033 | 14 | 359 | 4.8 | 14.5 | 0.00 | 0.97 | 0.97 | 94 | 1013.6 |
| 20260506201539 | 13 | 307 | 6.4 | 12.9 | 0.00 | 0.97 | 0.97 | 94 | 1013.8 |
| 20260506200037 | 13 | 316 | 6.4 | 19.3 | 0.00 | 0.97 | 0.97 | 94 | 1014.0 |
| 20260506194532 | 12 | 338 | 8.0 | 12.9 | 0.00 | 0.97 | 0.97 | 94 | 1013.8 |
| 20260506193034 | 12 | 8 | 8.0 | 17.7 | 0.00 | 0.97 | 0.97 | 94 | 1014.1 |
| 20260506191536 | 12 | 338 | 9.7 | 17.7 | 0.00 | 0.97 | 0.97 | 94 | 1014.0 |
| 20260506190036 | 12 | 4 | 9.7 | 19.3 | 0.00 | 0.97 | 0.97 | 95 | 1014.3 |
| 20260506184542 | 12 | 319 | 8.0 | 17.7 | 0.00 | 0.97 | 0.97 | 95 | 1014.4 |
| 20260506183040 | 12 | 302 | 9.7 | 19.3 | 0.00 | 0.97 | 0.97 | 95 | 1014.6 |
| 20260506181531 | 12 | 311 | 9.7 | 16.1 | 0.00 | 0.97 | 0.97 | 95 | 1014.6 |
| 20260506180040 | 12 | 343 | 8.0 | 16.1 | 0.00 | 0.97 | 0.97 | 95 | 1014.6 |
| 20260506174537 | 12 | 328 | 8.0 | 14.5 | 0.00 | 0.97 | 0.97 | 95 | 1014.6 |
| 20260506173039 | 12 | 359 | 9.7 | 17.7 | 0.00 | 0.97 | 0.97 | 95 | 1014.9 |
| 20260506171553 | 12 | 352 | 6.4 | 14.5 | 0.00 | 0.97 | 0.97 | 95 | 1014.3 |
| 20260506170043 | 12 | 53 | 8.0 | 17.7 | 0.00 | 0.97 | 0.97 | 95 | 1014.1 |
| 20260506164536 | 12 | 2 | 9.7 | 17.7 | 0.00 | 0.97 | 0.97 | 94 | 1014.2 |
| 20260506163035 | 12 | 319 | 6.4 | 22.5 | 0.00 | 0.97 | 0.97 | 95 | 1013.6 |
| 20260506161537 | 12 | 320 | 6.4 | 14.5 | 0.03 | 0.97 | 0.97 | 95 | 1013.8 |
| 20260506160039 | 12 | 317 | 6.4 | 12.9 | 0.03 | 0.97 | 0.97 | 95 | 1013.5 |
| 20260506154540 | 12 | 46 | 4.8 | 12.9 | 0.03 | 0.97 | 0.97 | 95 | 1013.1 |
| 20260506153035 | 12 | 13 | 1.6 | 11.3 | 0.03 | 0.97 | 0.97 | 95 | 1013.5 |
| 20260506151540 | 12 | 27 | 6.4 | 16.1 | 0.00 | 0.94 | 0.94 | 95 | 1013.1 |
| 20260506150033 | 11 | 356 | 8.0 | 19.3 | 0.05 | 0.94 | 0.94 | 95 | 1013.1 |
| 20260506144546 | 11 | 323 | 6.4 | 14.5 | 0.10 | 0.94 | 0.94 | 95 | 1012.9 |
| 20260506143037 | 11 | 47 | 9.7 | 17.7 | 0.51 | 0.94 | 0.94 | 95 | 1011.7 |
| 20260506141532 | 11 | 53 | 9.7 | 16.1 | 0.86 | 0.94 | 0.94 | 95 | 1012.2 |
| 20260506140036 | 11 | 103 | 12.9 | 20.9 | 0.89 | 0.89 | 0.89 | 94 | 1012.7 |
| 20260506134536 | 11 | 358 | 11.3 | 24.1 | 0.84 | 0.84 | 0.84 | 94 | 1012.7 |
| 20260506133034 | 12 | 20 | 11.3 | 20.9 | 0.38 | 0.38 | 0.38 | 93 | 1012.9 |
| 20260506131543 | 12 | 18 | 9.7 | 30.6 | 0.08 | 0.08 | 0.08 | 92 | 1013.0 |
| 20260506130035 | 13 | 5 | 12.9 | 24.1 | 0.00 | 0.00 | 0.00 | 87 | 1010.5 |
| 20260506124536 | 14 | 58 | 9.7 | 19.3 | 0.00 | 0.00 | 0.00 | 85 | 1010.7 |
| 20260506123035 | 15 | 37 | 9.7 | 14.5 | 0.00 | 0.00 | 0.00 | 84 | 1010.9 |
| 20260506121534 | 15 | 30 | 4.8 | 11.3 | 0.00 | 0.00 | 0.00 | 85 | 1010.3 |
| 20260506120039 | 15 | 25 | 6.4 | 17.7 | 0.00 | 0.00 | 0.00 | 84 | 1010.2 |
| 20260506114538 | 15 | 32 | 1.6 | 11.3 | 0.00 | 0.00 | 0.00 | 84 | 1010.3 |
| 20260506113033 | 16 | 1 | 4.8 | 9.7 | 0.00 | 0.00 | 0.00 | 84 | 1010.1 |
| 20260506111533 | 16 | 8 | 3.2 | 12.9 | 0.00 | 0.00 | 0.00 | 84 | 1010.0 |
| 20260506110038 | 16 | 17 | 3.2 | 9.7 | 0.00 | 0.00 | 0.00 | 83 | 1010.1 |
| 20260506104537 | 16 | 347 | 6.4 | 11.3 | 0.00 | 0.00 | 0.00 | 83 | 1010.2 |